QPF
0.00 0.00 0.00 0.00 0.00 0.00 0.00 0.00 0.00 0.00 0.00 0.00 0.00 0.00 0.00 0.00 0.00 0.00 0.00 0.00 0.00 0.00 0.00 0.00 0.00 0.00 0.00 0.00 0.00 0.01 0.01 0.01 0.01 0.01 0.01 0.01 0.01 0.01 0.01 0.01 0.01 0.01 0.01
0.00 0.00 0.00 0.00 0.00 0.00 0.00 0.00 0.00 0.00 0.00 0.00 0.00 0.00 0.00 0.00 0.00 0.00 0.00 0.00 0.00 0.00 0.00 0.00 0.00 0.00 0.00 0.00 0.01 0.01 0.01 0.00 0.00 0.00 0.00 0.00 0.00 0.00 0.00 0.00 0.00 0.00 0.00
0.01 0.00 0.00 0.00 0.00 0.00 0.00 0.00 0.00 0.00 0.00 0.00 0.00 0.00 0.00 0.00 0.00 0.00 0.00 0.00 0.00 0.00 0.00 0.00 0.00 0.00 0.00 0.00 0.01 0.01 0.01 0.00 0.00 0.00 0.00 0.00 0.00 0.00 0.00 0.00 0.00 0.00 0.00
0.01 0.01 0.00 0.00 0.00 0.00 0.00 0.00 0.00 0.00 0.00 0.00 0.00 0.00 0.00 0.00 0.00 0.00 0.00 0.00 0.00 0.00 0.00 0.00 0.00 0.00 0.00 0.00 0.00 0.00 0.00 0.00 0.00 0.00 0.00 0.00 0.00 0.00 0.00 0.00 0.00 0.00 0.00
0.01 0.01 0.01 0.00 0.00 0.00 0.00 0.00 0.00 0.00 0.00 0.00 0.00 0.00 0.00 0.00 0.00 0.00 0.00 0.00 0.00 0.00 0.00 0.00 0.00 0.00 0.00 0.00 0.00 0.00 0.00 0.00 0.00 0.00 0.00 0.00 0.00 0.00 0.00 0.00 0.00 0.00 0.00
0.01 0.01 0.00 0.00 0.00 0.00 0.00 0.00 0.00 0.00 0.00 0.00 0.00 0.00 0.00 0.00 0.00 0.00 0.00 0.00 0.00 0.00 0.00 0.00 0.00 0.00 0.00 0.00 0.00 0.00 0.00 0.00 0.00 0.00 0.00 0.00 0.00 0.00 0.00 0.00 0.00 0.00 0.00
0.01 0.01 0.01 0.00 0.00 0.00 0.00 0.00 0.00 0.00 0.00 0.00 0.00 0.00 0.00 0.00 0.00 0.00 0.00 0.00 0.00 0.00 0.00 0.00 0.00 0.00 0.00 0.00 0.00 0.00 0.00 0.00 0.00 0.00 0.00 0.00 0.00 0.00 0.00 0.00 0.00 0.00 0.00
0.00 0.01 0.01 0.01 0.00 0.00 0.00 0.00 0.00 0.00 0.00 0.00 0.00 0.00 0.00 0.00 0.00 0.00 0.00 0.00 0.00 0.00 0.00 0.00 0.00 0.00 0.00 0.00 0.00 0.00 0.00 0.00 0.00 0.00 0.00 0.00 0.00 0.00 0.00 0.00 0.00 0.00 0.00
0.00 0.00 0.00 0.01 0.01 0.00 0.00 0.00 0.00 0.00 0.00 0.00 0.00 0.00 0.00 0.00 0.00 0.00 0.00 0.00 0.00 0.00 0.00 0.00 0.00 0.00 0.00 0.00 0.00 0.00 0.00 0.00 0.00 0.00 0.00 0.00 0.00 0.00 0.00 0.00 0.00 0.00 0.00
0.00 0.00 0.00 0.00 0.00 0.00 0.00 0.00 0.00 0.00 0.00 0.00 0.00 0.00 0.00 0.00 0.00 0.00 0.00 0.00 0.00 0.00 0.00 0.00 0.00 0.00 0.00 0.00 0.00 0.00 0.00 0.00 0.00 0.00 0.00 0.00 0.00 0.00 0.00 0.00 0.00 0.00 0.00
0.00 0.00 0.00 0.00 0.00 0.00 0.00 0.00 0.00 0.00 0.00 0.00 0.00 0.00 0.00 0.00 0.00 0.00 0.00 0.00 0.00 0.00 0.00 0.00 0.00 0.00 0.00 0.00 0.00 0.00 0.00 0.00 0.00 0.00 0.00 0.00 0.00 0.00 0.00 0.00 0.00 0.00 0.00
0.00 0.00 0.00 0.00 0.00 0.00 0.00 0.00 0.00 0.00 0.00 0.00 0.00 0.00 0.00 0.00 0.00 0.00 0.00 0.00 0.00 0.00 0.00 0.00 0.00 0.00 0.00 0.00 0.00 0.00 0.00 0.00 0.00 0.00 0.00 0.00 0.00 0.00 0.00 0.00 0.00 0.00 0.00
0.00 0.00 0.00 0.00 0.00 0.00 0.00 0.00 0.00 0.00 0.00 0.00 0.00 0.00 0.00 0.00 0.00 0.00 0.00 0.00 0.00 0.00 0.00 0.00 0.00 0.00 0.00 0.00 0.00 0.00 0.00 0.00 0.00 0.00 0.00 0.00 0.00 0.00 0.00 0.00 0.00 0.00 0.00
0.00 0.00 0.00 0.00 0.00 0.00 0.00 0.00 0.00 0.00 0.00 0.00 0.00 0.00 0.00 0.00 0.00 0.00 0.00 0.00 0.00 0.00 0.00 0.00 0.00 0.00 0.00 0.00 0.00 0.00 0.00 0.00 0.00 0.00 0.00 0.00 0.00 0.00 0.00 0.00 0.00 0.00 0.00
0.00 0.00 0.00 0.00 0.00 0.00 0.00 0.00 0.00 0.00 0.00 0.00 0.00 0.00 0.00 0.00 0.00 0.00 0.00 0.00 0.00 0.00 0.00 0.00 0.00 0.00 0.00 0.00 0.00 0.00 0.00 0.00 0.00 0.00 0.00 0.00 0.00 0.00 0.00 0.00 0.00 0.00 0.00
0.00 0.00 0.00 0.00 0.00 0.00 0.00 0.00 0.00 0.00 0.00 0.00 0.00 0.00 0.00 0.00 0.00 0.00 0.00 0.00 0.00 0.00 0.00 0.00 0.00 0.00 0.00 0.00 0.00 0.00 0.00 0.00 0.00 0.00 0.00 0.00 0.00 0.00 0.00 0.00 0.00 0.00 0.00
0.00 0.00 0.00 0.00 0.00 0.00 0.00 0.00 0.00 0.00 0.00 0.00 0.00 0.00 0.00 0.00 0.00 0.00 0.00 0.00 0.00 0.00 0.00 0.00 0.00 0.00 0.00 0.00 0.00 0.00 0.00 0.00 0.00 0.00 0.00 0.00 0.00 0.00 0.00 0.00 0.00 0.00 0.00
0.00 0.00 0.00 0.00 0.00 0.00 0.00 0.00 0.00 0.00 0.00 0.00 0.00 0.00 0.00 0.00 0.00 0.00 0.00 0.00 0.00 0.00 0.00 0.00 0.00 0.00 0.00 0.00 0.00 0.00 0.00 0.00 0.00 0.00 0.00 0.00 0.00 0.00 0.00 0.00 0.00 0.00 0.00
0.00 0.00 0.00 0.00 0.00 0.00 0.00 0.00 0.00 0.00 0.00 0.00 0.00 0.00 0.00 0.00 0.00 0.00 0.00 0.00 0.00 0.00 0.00 0.00 0.00 0.00 0.00 0.00 0.00 0.00 0.00 0.00 0.00 0.00 0.00 0.00 0.00 0.00 0.00 0.00 0.00 0.00 0.00
0.00 0.00 0.00 0.00 0.00 0.00 0.00 0.00 0.00 0.00 0.00 0.00 0.00 0.00 0.00 0.00 0.00 0.00 0.00 0.00 0.00 0.00 0.00 0.00 0.00 0.00 0.00 0.00 0.00 0.00 0.00 0.00 0.00 0.00 0.00 0.00 0.00 0.00 0.00 0.00 0.00 0.00 0.00
0.00 0.00 0.00 0.00 0.00 0.00 0.00 0.00 0.00 0.00 0.00 0.00 0.00 0.00 0.00 0.00 0.00 0.00 0.00 0.00 0.00 0.00 0.00 0.00 0.00 0.00 0.00 0.00 0.00 0.00 0.00 0.00 0.00 0.00 0.00 0.00 0.00 0.00 0.00 0.00 0.00 0.00 0.00
0.00 0.00 0.00 0.00 0.00 0.00 0.00 0.00 0.00 0.00 0.00 0.00 0.00 0.00 0.00 0.00 0.00 0.00 0.00 0.00 0.00 0.00 0.00 0.00 0.00 0.00 0.00 0.00 0.00 0.00 0.00 0.00 0.00 0.00 0.00 0.00 0.00 0.00 0.00 0.00 0.00 0.00 0.00
0.00 0.00 0.00 0.00 0.00 0.00 0.00 0.00 0.00 0.00 0.00 0.00 0.00 0.00 0.00 0.00 0.00 0.00 0.00 0.00 0.00 0.00 0.00 0.00 0.00 0.00 0.00 0.00 0.00 0.00 0.00 0.00 0.00 0.00 0.00 0.00 0.00 0.00 0.00 0.00 0.00 0.00 0.00
0.00 0.00 0.00 0.00 0.00 0.00 0.00 0.00 0.00 0.00 0.00 0.00 0.00 0.00 0.00 0.00 0.00 0.00 0.00 0.00 0.00 0.00 0.00 0.00 0.00 0.00 0.00 0.00 0.00 0.00 0.00 0.00 0.00 0.00 0.01 0.01 0.01 0.00 0.00 0.00 0.00 0.00 0.00
0.00 0.00 0.00 0.00 0.00 0.00 0.00 0.00 0.00 0.00 0.00 0.00 0.00 0.00 0.00 0.00 0.00 0.00 0.00 0.01 0.01 0.00 0.00 0.00 0.00 0.00 0.00 0.01 0.01 0.01 0.01 0.00 0.00 0.00 0.00 0.00 0.00 0.00 0.00 0.00 0.00 0.00 0.00
0.00 0.00 0.00 0.00 0.00 0.00 0.00 0.00 0.00 0.00 0.00 0.00 0.00 0.00 0.00 0.00 0.00 0.00 0.00 0.01 0.01 0.00 0.00 0.01 0.02 0.02 0.02 0.03 0.04 0.03 0.02 0.01 0.00 0.00 0.00 0.00 0.00 0.00 0.00 0.00 0.00 0.00 0.00
MSLP
1019.22 1019.58 1019.90 1020.22 1020.53 1020.84 1021.15 1021.46 1021.74 1021.99 1022.18 1022.31 1022.38 1022.40 1022.39 1022.34 1022.27 1022.20 1022.11 1022.01 1021.89 1021.77 1021.65 1021.55 1021.48 1021.47 1021.50 1021.59 1021.71 1021.85 1021.99 1022.11 1022.19 1022.22 1022.21 1022.17 1022.10 1022.02 1021.94 1021.85 1021.76 1021.67 1021.57
1018.88 1019.26 1019.63 1019.99 1020.35 1020.73 1021.10 1021.47 1021.79 1022.07 1022.29 1022.43 1022.50 1022.51 1022.47 1022.39 1022.30 1022.19 1022.07 1021.95 1021.83 1021.71 1021.60 1021.52 1021.47 1021.47 1021.51 1021.61 1021.74 1021.89 1022.04 1022.18 1022.29 1022.36 1022.41 1022.42 1022.41 1022.39 1022.34 1022.27 1022.19 1022.09 1021.97
1018.52 1018.91 1019.31 1019.72 1020.16 1020.61 1021.05 1021.48 1021.87 1022.20 1022.44 1022.59 1022.66 1022.66 1022.60 1022.49 1022.36 1022.21 1022.07 1021.92 1021.79 1021.66 1021.56 1021.50 1021.47 1021.48 1021.53 1021.63 1021.76 1021.91 1022.07 1022.22 1022.35 1022.46 1022.55 1022.62 1022.67 1022.69 1022.68 1022.65 1022.59 1022.49 1022.38
1018.21 1018.59 1019.01 1019.47 1019.97 1020.49 1021.02 1021.52 1021.97 1022.34 1022.61 1022.79 1022.87 1022.85 1022.77 1022.64 1022.47 1022.30 1022.12 1021.95 1021.80 1021.67 1021.57 1021.51 1021.49 1021.51 1021.57 1021.67 1021.79 1021.93 1022.08 1022.23 1022.38 1022.51 1022.64 1022.75 1022.84 1022.91 1022.95 1022.95 1022.91 1022.84 1022.74
1018.06 1018.41 1018.82 1019.30 1019.83 1020.40 1020.99 1021.54 1022.04 1022.46 1022.77 1022.97 1023.06 1023.05 1022.96 1022.82 1022.63 1022.43 1022.23 1022.04 1021.87 1021.74 1021.63 1021.57 1021.55 1021.57 1021.63 1021.71 1021.82 1021.95 1022.09 1022.23 1022.38 1022.53 1022.67 1022.81 1022.94 1023.04 1023.12 1023.16 1023.15 1023.11 1023.04
1018.14 1018.41 1018.78 1019.24 1019.77 1020.36 1020.96 1021.54 1022.07 1022.51 1022.84 1023.07 1023.17 1023.18 1023.11 1022.97 1022.79 1022.59 1022.38 1022.18 1022.00 1021.85 1021.73 1021.66 1021.63 1021.64 1021.68 1021.75 1021.85 1021.96 1022.09 1022.22 1022.37 1022.52 1022.68 1022.83 1022.98 1023.11 1023.21 1023.28 1023.30 1023.29 1023.24
1018.49 1018.65 1018.94 1019.33 1019.81 1020.36 1020.94 1021.50 1022.01 1022.45 1022.79 1023.03 1023.17 1023.20 1023.16 1023.06 1022.90 1022.71 1022.51 1022.31 1022.12 1021.96 1021.83 1021.74 1021.69 1021.68 1021.71 1021.77 1021.85 1021.95 1022.07 1022.20 1022.34 1022.50 1022.66 1022.82 1022.97 1023.11 1023.23 1023.31 1023.36 1023.37 1023.35
1019.09 1019.13 1019.30 1019.59 1019.98 1020.44 1020.93 1021.43 1021.88 1022.28 1022.61 1022.85 1023.00 1023.08 1023.08 1023.02 1022.91 1022.76 1022.58 1022.40 1022.21 1022.03 1021.89 1021.77 1021.70 1021.67 1021.67 1021.72 1021.79 1021.89 1022.01 1022.14 1022.29 1022.45 1022.61 1022.77 1022.92 1023.06 1023.18 1023.27 1023.33 1023.35 1023.35
1019.91 1019.83 1019.88 1020.04 1020.30 1020.62 1020.99 1021.36 1021.71 1022.03 1022.31 1022.53 1022.69 1022.80 1022.86 1022.85 1022.80 1022.69 1022.55 1022.38 1022.20 1022.01 1021.84 1021.70 1021.60 1021.55 1021.53 1021.57 1021.64 1021.75 1021.88 1022.03 1022.19 1022.35 1022.52 1022.68 1022.83 1022.97 1023.08 1023.16 1023.22 1023.26 1023.27
1020.89 1020.72 1020.64 1020.67 1020.77 1020.94 1021.14 1021.35 1021.57 1021.78 1021.97 1022.15 1022.30 1022.43 1022.52 1022.57 1022.57 1022.51 1022.40 1022.25 1022.07 1021.87 1021.67 1021.51 1021.37 1021.29 1021.26 1021.29 1021.37 1021.49 1021.64 1021.81 1022.00 1022.19 1022.37 1022.54 1022.69 1022.82 1022.92 1023.00 1023.06 1023.10 1023.13
1021.97 1021.72 1021.55 1021.45 1021.41 1021.40 1021.42 1021.47 1021.52 1021.59 1021.68 1021.79 1021.91 1022.03 1022.14 1022.22 1022.25 1022.23 1022.14 1022.00 1021.82 1021.60 1021.38 1021.18 1021.01 1020.90 1020.86 1020.88 1020.96 1021.10 1021.28 1021.48 1021.70 1021.92 1022.13 1022.32 1022.47 1022.61 1022.71 1022.79 1022.85 1022.90 1022.94
1023.06 1022.78 1022.55 1022.35 1022.17 1022.01 1021.86 1021.73 1021.62 1021.54 1021.51 1021.53 1021.59 1021.67 1021.77 1021.85 1021.90 1021.89 1021.81 1021.66 1021.46 1021.23 1020.98 1020.74 1020.54 1020.41 1020.34 1020.35 1020.44 1020.59 1020.80 1021.03 1021.29 1021.55 1021.79 1022.00 1022.18 1022.33 1022.44 1022.53 1022.60 1022.66 1022.73
1024.09 1023.82 1023.55 1023.28 1023.00 1022.71 1022.41 1022.12 1021.86 1021.65 1021.49 1021.41 1021.39 1021.42 1021.47 1021.53 1021.55 1021.52 1021.42 1021.26 1021.04 1020.77 1020.49 1020.23 1020.00 1019.83 1019.75 1019.75 1019.83 1019.99 1020.22 1020.48 1020.77 1021.07 1021.34 1021.59 1021.80 1021.97 1022.11 1022.22 1022.31 1022.40 1022.49
1024.98 1024.73 1024.46 1024.15 1023.80 1023.41 1023.00 1022.59 1022.21 1021.87 1021.61 1021.42 1021.31 1021.26 1021.25 1021.25 1021.22 1021.15 1021.01 1020.82 1020.56 1020.27 1019.97 1019.67 1019.42 1019.23 1019.12 1019.11 1019.18 1019.34 1019.57 1019.86 1020.17 1020.49 1020.81 1021.09 1021.34 1021.55 1021.72 1021.86 1021.99 1022.11 1022.24
1025.67 1025.45 1025.18 1024.85 1024.46 1024.01 1023.53 1023.04 1022.57 1022.15 1021.79 1021.52 1021.32 1021.18 1021.08 1021.00 1020.90 1020.76 1020.58 1020.34 1020.05 1019.74 1019.41 1019.10 1018.83 1018.63 1018.51 1018.47 1018.53 1018.68 1018.90 1019.19 1019.51 1019.86 1020.20 1020.51 1020.80 1021.05 1021.26 1021.44 1021.61 1021.77 1021.94
1026.10 1025.90 1025.63 1025.29 1024.87 1024.40 1023.89 1023.36 1022.85 1022.37 1021.96 1021.61 1021.33 1021.11 1020.92 1020.74 1020.56 1020.35 1020.10 1019.82 1019.50 1019.17 1018.84 1018.52 1018.25 1018.04 1017.91 1017.86 1017.90 1018.03 1018.23 1018.51 1018.83 1019.18 1019.53 1019.87 1020.19 1020.47 1020.72 1020.95 1021.15 1021.36 1021.56
1026.25 1026.03 1025.75 1025.41 1024.99 1024.51 1024.00 1023.47 1022.95 1022.46 1022.01 1021.62 1021.27 1020.97 1020.69 1020.42 1020.15 1019.86 1019.55 1019.23 1018.89 1018.55 1018.22 1017.92 1017.66 1017.46 1017.33 1017.27 1017.29 1017.40 1017.58 1017.83 1018.13 1018.47 1018.83 1019.18 1019.51 1019.82 1020.10 1020.35 1020.59 1020.83 1021.08
1026.14 1025.90 1025.60 1025.24 1024.82 1024.36 1023.86 1023.35 1022.85 1022.36 1021.91 1021.48 1021.09 1020.71 1020.35 1019.99 1019.64 1019.28 1018.91 1018.55 1018.20 1017.86 1017.55 1017.27 1017.04 1016.85 1016.73 1016.67 1016.67 1016.76 1016.91 1017.14 1017.42 1017.74 1018.08 1018.42 1018.76 1019.07 1019.37 1019.64 1019.91 1020.18 1020.45
1025.87 1025.59 1025.25 1024.88 1024.46 1024.01 1023.54 1023.05 1022.57 1022.10 1021.64 1021.20 1020.76 1020.32 1019.89 1019.45 1019.02 1018.59 1018.17 1017.78 1017.42 1017.09 1016.79 1016.54 1016.33 1016.17 1016.06 1016.00 1016.01 1016.07 1016.21 1016.40 1016.66 1016.95 1017.27 1017.60 1017.92 1018.23 1018.53 1018.81 1019.09 1019.37 1019.67
1025.55 1025.22 1024.85 1024.45 1024.02 1023.58 1023.12 1022.65 1022.19 1021.73 1021.26 1020.79 1020.31 1019.82 1019.31 1018.81 1018.30 1017.82 1017.35 1016.93 1016.55 1016.22 1015.94 1015.71 1015.52 1015.38 1015.28 1015.23 1015.24 1015.30 1015.41 1015.59 1015.82 1016.09 1016.39 1016.69 1017.00 1017.29 1017.58 1017.85 1018.13 1018.43 1018.75
1025.31 1024.93 1024.53 1024.09 1023.65 1023.19 1022.72 1022.26 1021.79 1021.31 1020.82 1020.31 1019.78 1019.23 1018.67 1018.10 1017.53 1016.99 1016.48 1016.02 1015.62 1015.28 1015.00 1014.77 1014.59 1014.45 1014.36 1014.31 1014.32 1014.38 1014.49 1014.66 1014.88 1015.14 1015.42 1015.71 1015.99 1016.27 1016.54 1016.80 1017.07 1017.37 1017.71
1025.24 1024.83 1024.38 1023.91 1023.43 1022.93 1022.43 1021.93 1021.42 1020.90 1020.36 1019.80 1019.22 1018.61 1017.98 1017.35 1016.73 1016.14 1015.58 1015.09 1014.65 1014.28 1013.97 1013.72 1013.52 1013.37 1013.27 1013.22 1013.23 1013.29 1013.41 1013.59 1013.81 1014.07 1014.35 1014.64 1014.91 1015.18 1015.43 1015.68 1015.95 1016.25 1016.60
1025.38 1024.93 1024.45 1023.93 1023.39 1022.83 1022.27 1021.69 1021.11 1020.52 1019.91 1019.28 1018.62 1017.95 1017.27 1016.59 1015.92 1015.28 1014.69 1014.15 1013.66 1013.24 1012.88 1012.58 1012.34 1012.16 1012.03 1011.97 1011.97 1012.03 1012.17 1012.37 1012.62 1012.91 1013.21 1013.51 1013.79 1014.06 1014.30 1014.55 1014.81 1015.11 1015.48
1025.68 1025.19 1024.66 1024.07 1023.46 1022.82 1022.16 1021.48 1020.80 1020.11 1019.41 1018.70 1017.98 1017.26 1016.53 1015.81 1015.11 1014.43 1013.79 1013.20 1012.66 1012.18 1011.75 1011.38 1011.07 1010.83 1010.66 1010.56 1010.56 1010.63 1010.79 1011.03 1011.32 1011.66 1012.00 1012.34 1012.65 1012.93 1013.19 1013.44 1013.70 1014.01 1014.38
1026.00 1025.47 1024.87 1024.21 1023.50 1022.75 1021.98 1021.19 1020.39 1019.60 1018.80 1018.02 1017.24 1016.47 1015.71 1014.97 1014.25 1013.55 1012.87 1012.24 1011.64 1011.08 1010.57 1010.12 1009.73 1009.42 1009.19 1009.06 1009.04 1009.13 1009.33 1009.61 1009.96 1010.35 1010.76 1011.15 1011.51 1011.83 1012.12 1012.39 1012.66 1012.97 1013.35
1026.19 1025.60 1024.92 1024.17 1023.35 1022.49 1021.60 1020.69 1019.78 1018.89 1018.01 1017.16 1016.34 1015.55 1014.78 1014.03 1013.31 1012.59 1011.90 1011.22 1010.57 1009.94 1009.35 1008.81 1008.34 1007.95 1007.67 1007.52 1007.49 1007.59 1007.82 1008.16 1008.58 1009.04 1009.52 1009.99 1010.41 1010.78 1011.11 1011.40 1011.69 1012.01 1012.39
Thickness
5670 5667 5663 5660 5657 5655 5652 5650 5648 5647 5646 5646 5647 5646 5646 5646 5646 5647 5648 5649 5650 5651 5653 5654 5655 5656 5656 5657 5657 5658 5658 5658 5659 5660 5662 5663 5664 5665 5666 5668 5669 5671 5672
5666 5662 5658 5655 5651 5647 5645 5642 5640 5638 5638 5638 5639 5639 5640 5640 5640 5640 5641 5642 5643 5644 5646 5647 5648 5648 5649 5649 5649 5650 5650 5650 5650 5650 5651 5652 5654 5655 5656 5657 5659 5660 5662
5661 5658 5654 5650 5646 5641 5637 5634 5631 5629 5628 5628 5629 5631 5632 5632 5633 5634 5634 5635 5636 5637 5639 5640 5641 5641 5641 5641 5641 5641 5641 5641 5640 5640 5641 5642 5643 5644 5645 5646 5648 5649 5651
5655 5651 5648 5645 5641 5636 5632 5627 5623 5619 5618 5617 5618 5620 5622 5624 5625 5626 5627 5627 5628 5629 5630 5631 5633 5633 5633 5633 5633 5632 5632 5631 5631 5631 5631 5632 5633 5633 5634 5635 5636 5638 5640
5647 5644 5640 5637 5633 5629 5625 5621 5615 5612 5609 5607 5607 5608 5611 5613 5615 5617 5618 5619 5619 5620 5621 5622 5623 5624 5625 5625 5625 5624 5623 5623 5622 5622 5622 5622 5623 5623 5624 5624 5626 5627 5628
5637 5634 5631 5628 5624 5620 5616 5612 5607 5603 5601 5598 5597 5597 5599 5601 5604 5607 5609 5610 5610 5611 5611 5612 5613 5614 5615 5616 5616 5616 5615 5615 5613 5613 5613 5613 5613 5613 5614 5614 5615 5616 5618
5623 5621 5619 5616 5613 5610 5608 5604 5599 5594 5590 5587 5584 5584 5587 5590 5593 5597 5599 5601 5601 5602 5602 5603 5603 5604 5605 5606 5606 5607 5607 5607 5605 5604 5604 5604 5603 5604 5604 5605 5606 5607 5608
5606 5605 5604 5602 5600 5598 5595 5592 5588 5584 5580 5577 5574 5571 5572 5578 5585 5589 5589 5591 5593 5593 5594 5594 5594 5595 5595 5596 5597 5598 5599 5600 5598 5595 5595 5594 5594 5594 5595 5596 5597 5598 5599
5587 5586 5586 5585 5583 5582 5580 5578 5576 5574 5571 5566 5565 5564 5561 5568 5575 5577 5579 5581 5582 5583 5585 5585 5586 5585 5585 5586 5587 5588 5590 5590 5590 5587 5586 5585 5585 5585 5586 5587 5588 5589 5590
5566 5566 5566 5566 5565 5564 5563 5562 5561 5560 5559 5557 5553 5552 5550 5550 5553 5561 5565 5568 5569 5571 5573 5574 5575 5576 5576 5578 5578 5579 5580 5580 5580 5578 5577 5576 5576 5577 5578 5579 5579 5580 5581
5542 5543 5545 5546 5546 5546 5546 5545 5545 5544 5544 5545 5543 5542 5539 5537 5539 5540 5550 5554 5555 5560 5562 5563 5565 5567 5568 5569 5569 5569 5569 5569 5569 5568 5567 5566 5566 5567 5568 5570 5571 5571 5572
5518 5519 5521 5523 5524 5526 5526 5527 5527 5527 5527 5528 5529 5529 5528 5528 5528 5527 5534 5538 5540 5548 5551 5553 5554 5557 5559 5560 5560 5559 5558 5558 5558 5558 5557 5556 5556 5557 5559 5560 5561 5562 5562
5492 5493 5495 5498 5500 5503 5505 5507 5508 5508 5509 5511 5512 5514 5515 5516 5515 5516 5519 5522 5524 5532 5537 5542 5545 5547 5548 5550 5550 5549 5548 5548 5548 5548 5548 5547 5547 5547 5548 5550 5551 5552 5553
5466 5468 5471 5474 5476 5479 5482 5484 5486 5487 5489 5491 5494 5496 5499 5501 5501 5502 5505 5505 5511 5518 5522 5529 5534 5536 5538 5539 5540 5538 5538 5538 5538 5538 5538 5538 5538 5537 5538 5539 5540 5541 5542
5442 5444 5447 5450 5452 5454 5457 5460 5463 5465 5468 5470 5473 5476 5479 5483 5484 5486 5489 5490 5494 5505 5519 5519 5521 5526 5527 5528 5528 5528 5529 5529 5529 5528 5528 5528 5528 5528 5528 5528 5529 5530 5531
5419 5420 5422 5424 5427 5430 5433 5436 5439 5442 5445 5448 5451 5455 5459 5462 5465 5468 5470 5473 5477 5484 5501 5511 5511 5514 5515 5517 5517 5517 5519 5518 5517 5517 5517 5517 5517 5518 5518 5518 5519 5520 5521
5396 5397 5398 5400 5402 5405 5407 5410 5413 5417 5421 5426 5430 5434 5439 5442 5446 5449 5451 5454 5458 5462 5478 5494 5493 5497 5498 5501 5502 5504 5505 5505 5506 5506 5506 5506 5506 5507 5508 5508 5509 5509 5510
5372 5372 5374 5376 5379 5381 5383 5385 5388 5392 5396 5402 5407 5411 5417 5421 5426 5430 5433 5436 5441 5444 5452 5468 5474 5476 5481 5486 5488 5489 5492 5493 5494 5494 5494 5494 5495 5496 5497 5499 5499 5499 5500
5348 5348 5349 5351 5353 5356 5359 5360 5362 5366 5371 5377 5382 5388 5394 5398 5405 5409 5414 5419 5423 5428 5433 5444 5456 5458 5463 5466 5469 5473 5477 5478 5478 5478 5479 5482 5484 5485 5486 5488 5489 5489 5489
5321 5321 5322 5324 5326 5329 5332 5333 5335 5340 5346 5352 5358 5365 5371 5376 5382 5387 5393 5399 5404 5409 5415 5423 5435 5439 5442 5446 5450 5459 5460 5463 5464 5463 5465 5469 5471 5471 5474 5476 5478 5479 5478
5294 5294 5296 5298 5300 5302 5304 5303 5306 5311 5318 5327 5335 5342 5349 5355 5361 5365 5371 5378 5382 5388 5395 5404 5414 5419 5426 5428 5437 5444 5446 5447 5447 5448 5449 5454 5456 5458 5462 5465 5467 5468 5468
5270 5269 5270 5271 5274 5277 5277 5275 5274 5280 5289 5298 5310 5319 5325 5332 5340 5344 5350 5357 5362 5367 5375 5383 5395 5405 5416 5418 5419 5423 5426 5426 5434 5440 5432 5436 5438 5446 5452 5454 5457 5456 5456
5247 5247 5248 5247 5250 5254 5251 5248 5247 5249 5260 5270 5280 5289 5299 5308 5314 5320 5326 5332 5339 5347 5358 5366 5376 5392 5399 5402 5401 5404 5408 5416 5426 5425 5416 5422 5425 5435 5441 5442 5442 5443 5444
5223 5223 5224 5223 5224 5229 5225 5223 5222 5225 5234 5245 5252 5258 5267 5279 5287 5291 5296 5303 5313 5325 5337 5344 5357 5375 5377 5379 5383 5390 5393 5397 5404 5407 5410 5414 5422 5427 5429 5429 5430 5431 5432
5200 5198 5199 5199 5199 5201 5197 5196 5197 5202 5212 5221 5227 5232 5238 5248 5259 5261 5263 5274 5289 5303 5313 5319 5330 5344 5354 5359 5361 5364 5370 5375 5388 5395 5397 5400 5410 5412 5412 5416 5416 5415 5417
5177 5177 5177 5175 5173 5175 5174 5175 5177 5182 5190 5198 5205 5209 5214 5220 5229 5232 5235 5244 5258 5279 5287 5293 5301 5315 5328 5336 5341 5347 5355 5360 5372 5380 5385 5385 5390 5389 5391 5400 5401 5400 5402